Weather History for Kearney, NE

Change the Weather History Date:

Sunday, October 28, 2012

  Actual Average Record
Temperature  
Mean Temperature 37 °F 46 °F  
Max Temperature 54 °F 59 °F 84 °F (1933)
Min Temperature 19 °F 33 °F 12 °F (1997)
Degree Days  
Heating Degree Days 28 19  
Cooling Degree Days 0 0  
Moisture  
Dew Point 25 °F    
Average Humidity 65    
Maximum Humidity 88    
Minimum Humidity 41    
Precipitation  
Precipitation 0.00 in - 0.77 in (1940)
Sea Level Pressure  
Sea Level Pressure 30.16 in    
Wind  
Wind Speed 11 mph (SSE)    
Max Wind Speed 20 mph    
Max Gust Speed 23 mph    
Visibility 10 miles    
Events      
T = Trace of Precipitation, MM = Missing Value Source: NWS Daily Summary

Daily Weather History Graph

Daily Weather History Graph

Search for Another Location

Airport:

Trip Planner

Search our weather history database for the weather conditions in past years. The results will help you decide how hot, cold, wet, or windy it might be!

Date:

Astronomy

Oct. 28, 2012 Rise Set
Actual Time 8:02 AM CDT 6:36 PM CDT
Civil Twilight 7:34 AM CDT 7:04 PM CDT
Nautical Twilight 7:01 AM CDT 7:36 PM CDT
Astronomical Twilight 6:30 AM CDT 8:08 PM CDT
Moon 5:55 PM CDT (10/28) 6:56 AM CDT (10/28)
Length of Visible Light 11h 30m
Length of Day
10h 34m
Waxing Gibbous, 99% of the Moon is Illuminated
Oct 28
Waxing Gibbous
Oct 29
Full
Nov 6
Last Quarter
Nov 13
New
Nov 20
First Quarter

Hourly Weather History & Observations

Time (CDT) Temp. Windchill Dew Point Humidity Pressure Visibility Wind Dir Wind Speed Gust Speed Precip Events Conditions
12:15 AM 28.4 °F 19.7 °F 21.2 °F 74% 30.21 in 10.0 mi South 9.2 mph - N/A   Clear
12:35 AM 26.6 °F 19.1 °F 21.2 °F 80% 30.21 in 10.0 mi South 6.9 mph - N/A   Clear
12:55 AM 28.4 °F 19.1 °F 23.0 °F 80% 30.21 in 10.0 mi South 10.4 mph - N/A   Clear
1:15 AM 26.6 °F 17.5 °F 21.2 °F 80% 30.21 in 10.0 mi South 9.2 mph - N/A   Clear
1:35 AM 28.4 °F 20.4 °F 21.2 °F 74% 30.21 in 10.0 mi South 8.1 mph - N/A   Clear
1:55 AM 28.4 °F 20.4 °F 23.0 °F 80% 30.21 in 10.0 mi South 8.1 mph - N/A   Clear
2:15 AM 28.4 °F 20.4 °F 23.0 °F 80% 30.21 in 10.0 mi South 8.1 mph - N/A   Clear
2:35 AM 28.4 °F 21.2 °F 21.2 °F 74% 30.21 in 10.0 mi South 6.9 mph - N/A   Clear
2:55 AM 26.6 °F 19.1 °F 21.2 °F 80% 30.21 in 10.0 mi South 6.9 mph - N/A   Clear
3:15 AM 26.6 °F 20.0 °F 21.2 °F 80% 30.21 in 10.0 mi South 5.8 mph - N/A   Clear
3:35 AM 26.6 °F 17.5 °F 21.2 °F 80% 30.21 in 10.0 mi South 9.2 mph - N/A   Clear
3:55 AM 26.6 °F 18.2 °F 23.0 °F 86% 30.20 in 10.0 mi South 8.1 mph - N/A   Clear
4:15 AM 26.6 °F 20.0 °F 21.2 °F 80% 30.19 in 10.0 mi South 5.8 mph - N/A   Clear
4:35 AM 26.6 °F 22.6 °F 21.2 °F 80% 30.19 in 10.0 mi SSW 3.5 mph - N/A   Clear
4:55 AM 28.4 °F 23.3 °F 21.2 °F 74% 30.19 in 10.0 mi SSW 4.6 mph - N/A   Clear
5:15 AM 24.8 °F 17.9 °F 19.4 °F 80% 30.18 in 10.0 mi South 5.8 mph - N/A   Clear
5:35 AM 24.8 °F 16.9 °F 19.4 °F 80% 30.18 in 10.0 mi South 6.9 mph - N/A   Clear
5:55 AM 24.8 °F 16.9 °F 19.4 °F 80% 30.19 in 10.0 mi SSW 6.9 mph - N/A   Clear
6:15 AM 24.8 °F 19.1 °F 19.4 °F 80% 30.19 in 10.0 mi SSW 4.6 mph - N/A   Clear
6:35 AM 24.8 °F 19.1 °F 19.4 °F 80% 30.20 in 10.0 mi SSW 4.6 mph - N/A   Clear
6:55 AM 24.8 °F 16.1 °F 19.4 °F 80% 30.21 in 10.0 mi SSW 8.1 mph - N/A   Clear
7:15 AM 24.8 °F 19.1 °F 19.4 °F 80% 30.20 in 10.0 mi SSW 4.6 mph - N/A   Clear
7:35 AM 21.2 °F - 17.6 °F 86% 30.20 in 10.0 mi Calm Calm - N/A   Clear
7:55 AM 21.2 °F - 17.6 °F 86% 30.21 in 10.0 mi Calm Calm - N/A   Clear
8:15 AM 19.4 °F 11.5 °F 15.8 °F 86% 30.21 in 10.0 mi SE 5.8 mph - N/A   Clear
8:35 AM 21.2 °F 14.9 °F 19.4 °F 93% 30.21 in 10.0 mi ESE 4.6 mph - N/A   Clear
8:55 AM 24.8 °F 19.1 °F 21.2 °F 86% 30.21 in 9.0 mi SSE 4.6 mph - N/A   Clear
9:15 AM 26.6 °F 20.0 °F 23.0 °F 86% 30.21 in 10.0 mi SE 5.8 mph - N/A   Clear
9:35 AM 30.2 °F 23.4 °F 26.6 °F 86% 30.21 in 10.0 mi SSE 6.9 mph - N/A   Clear
9:55 AM 30.2 °F 21.9 °F 24.8 °F 80% 30.20 in 10.0 mi SSE 9.2 mph - N/A   Clear
10:15 AM 33.8 °F 25.3 °F 26.6 °F 75% 30.20 in 10.0 mi SSE 11.5 mph - N/A   Scattered Clouds
10:35 AM 35.6 °F 27.1 °F 26.6 °F 70% 30.20 in 10.0 mi South 12.7 mph - N/A   Mostly Cloudy
10:55 AM 37.4 °F 29.3 °F 26.6 °F 65% 30.19 in 10.0 mi South 12.7 mph - N/A   Scattered Clouds
11:15 AM 39.2 °F 32.5 °F 26.6 °F 61% 30.20 in 10.0 mi South 10.4 mph - N/A   Clear
11:35 AM 41.0 °F 34.7 °F 26.6 °F 57% 30.19 in 10.0 mi South 10.4 mph - N/A   Clear
11:55 AM 42.8 °F 37.5 °F 26.6 °F 53% 30.19 in 10.0 mi South 9.2 mph - N/A   Clear
12:15 PM 42.8 °F 37.0 °F 28.4 °F 57% 30.19 in 10.0 mi South 10.4 mph - N/A   Clear
12:35 PM 44.6 °F 38.4 °F 28.4 °F 53% 30.19 in 10.0 mi South 12.7 mph 16.1 mph N/A   Clear
12:55 PM 44.6 °F 38.8 °F 28.4 °F 53% 30.17 in 10.0 mi South 11.5 mph - N/A   Clear
1:15 PM 46.4 °F 40.4 °F 28.4 °F 50% 30.15 in 10.0 mi South 13.8 mph - N/A   Partly Cloudy
1:35 PM 46.4 °F 40.7 °F 28.4 °F 50% 30.15 in 10.0 mi SSE 12.7 mph - N/A   Mostly Cloudy
1:55 PM 46.4 °F 40.1 °F 28.4 °F 50% 30.15 in 10.0 mi South 15.0 mph - N/A   Mostly Cloudy
2:15 PM 48.2 °F - 28.4 °F 46% 30.14 in 10.0 mi SSE 16.1 mph - N/A   Scattered Clouds
2:35 PM 48.2 °F - 28.4 °F 46% 30.13 in 10.0 mi SSE 13.8 mph - N/A   Partly Cloudy
2:55 PM 50.0 °F - 28.4 °F 43% 30.12 in 10.0 mi SSE 17.3 mph - N/A   Scattered Clouds
3:15 PM 50.0 °F - 28.4 °F 43% 30.11 in 10.0 mi SSE 17.3 mph - N/A   Mostly Cloudy
3:35 PM 51.8 °F - 28.4 °F 41% 30.11 in 10.0 mi South 18.4 mph 23.0 mph N/A   Mostly Cloudy
3:55 PM 51.8 °F - 28.4 °F 41% 30.10 in 10.0 mi SSE 19.6 mph 23.0 mph N/A   Overcast
4:15 PM 51.8 °F - 28.4 °F 41% 30.09 in 10.0 mi SSE 17.3 mph - N/A   Overcast
4:35 PM 51.8 °F - 28.4 °F 41% 30.09 in 10.0 mi SSE 18.4 mph - N/A   Mostly Cloudy
4:55 PM 48.2 °F - 28.4 °F 46% 30.09 in 10.0 mi SSE 19.6 mph - N/A   Mostly Cloudy
5:15 PM 48.2 °F - 28.4 °F 46% 30.09 in 10.0 mi SSE 19.6 mph 24.2 mph N/A   Overcast
5:35 PM 48.2 °F - 28.4 °F 46% 30.09 in 10.0 mi SSE 15.0 mph - N/A   Overcast
5:55 PM 46.4 °F 39.2 °F 28.4 °F 50% 30.08 in 10.0 mi SSE 18.4 mph - N/A   Overcast
6:15 PM 46.4 °F 39.8 °F 28.4 °F 50% 30.09 in 10.0 mi SSE 16.1 mph 21.9 mph N/A   Overcast
6:35 PM 46.4 °F 39.5 °F 28.4 °F 50% 30.09 in 10.0 mi SSE 17.3 mph - N/A   Overcast
6:55 PM 44.6 °F 37.2 °F 28.4 °F 53% 30.09 in 10.0 mi SSE 17.3 mph - N/A   Scattered Clouds
7:15 PM 44.6 °F 37.8 °F 28.4 °F 53% 30.09 in 10.0 mi SSE 15.0 mph - N/A   Clear
7:35 PM 42.8 °F 35.4 °F 28.4 °F 57% 30.09 in 10.0 mi SSE 15.0 mph - N/A   Partly Cloudy
7:55 PM 44.6 °F 38.4 °F 28.4 °F 53% 30.10 in 10.0 mi SSE 12.7 mph - N/A   Mostly Cloudy
8:15 PM 44.6 °F 38.4 °F 28.4 °F 53% 30.10 in 10.0 mi SSE 12.7 mph - N/A   Overcast
8:35 PM 44.6 °F 38.1 °F 28.4 °F 53% 30.09 in 10.0 mi SE 13.8 mph - N/A   Overcast
8:55 PM 44.6 °F 38.8 °F 28.4 °F 53% 30.09 in 10.0 mi SSE 11.5 mph - N/A   Overcast
9:15 PM 44.6 °F 38.4 °F 28.4 °F 53% 30.09 in 10.0 mi SSE 12.7 mph - N/A   Overcast
9:35 PM 44.6 °F 38.4 °F 28.4 °F 53% 30.09 in 10.0 mi SSE 12.7 mph - N/A   Overcast
9:55 PM 44.6 °F 38.1 °F 28.4 °F 53% 30.09 in 10.0 mi SSE 13.8 mph - N/A   Overcast
10:15 PM 46.4 °F 40.1 °F 28.4 °F 50% 30.09 in 10.0 mi SSE 15.0 mph - N/A   Overcast
10:35 PM 46.4 °F 40.1 °F 28.4 °F 50% 30.10 in 10.0 mi SSE 15.0 mph - N/A   Overcast
10:55 PM 46.4 °F 40.4 °F 28.4 °F 50% 30.10 in 10.0 mi SSE 13.8 mph - N/A   Mostly Cloudy
11:15 PM 44.6 °F 38.1 °F 28.4 °F 53% 30.10 in 10.0 mi SSE 13.8 mph - N/A   Mostly Cloudy
11:35 PM 44.6 °F 38.4 °F 28.4 °F 53% 30.10 in 10.0 mi SSE 12.7 mph - N/A   Mostly Cloudy
11:55 PM 44.6 °F 39.2 °F 28.4 °F 53% 30.10 in 10.0 mi South 10.4 mph - N/A   Scattered Clouds